Location: Clanezzo
(45.7500°N, 9.6000°E)
Time: 05:05:43
(UTC+00:00)

Envisat - Pass Details

Date: 24 January 2022
Orbit: 764 x 765 km, 98.2° (Epoch: 22 May)

Event Time Altitude Azimuth Distance (km) Brightness Sun altitude
Rises 03:51:34 0° 18° (NNE) 3,241 6.5 -31.3°
Reaches altitude 10° 03:53:58 10° 24° (NNE) 2,310 5.8 -30.9°
Maximum altitude 03:58:53 48° 99° (E) 997 3.8 -30.0°
Drops below altitude 10° 04:03:46 10° 173° (S) 2,295 5.5 -29.2°
Sets 04:06:08 0° 179° (S) 3,216 6.2 -28.8°
